This is the latest recevied weather packets stored in our database for station/object CE1RLP-31. If no packets are shown the sender has not sent any weather packets the latest 10 day(s).
| Time | Temp. | Humidity | Pressure | Rain* | Wind** | Luminosity | Snow |
|---|---|---|---|---|---|---|---|
| 1788156638 | 34° F | 35% | 822.4 mmHg | - | - | - | - |
| 1788155738 | 33° F | 35% | 822.2 mmHg | - | - | - | - |
| 1788154838 | 34° F | 32% | 822.4 mmHg | - | - | - | - |
| 1788153938 | 34° F | 31% | 822.5 mmHg | - | - | - | - |
| 1788153038 | 34° F | 31% | 822.5 mmHg | - | - | - | - |
| 1788152137 | 34° F | 30% | 822.6 mmHg | - | - | - | - |
| 1788151237 | 34° F | 29% | 822.7 mmHg | - | - | - | - |
| 1788150337 | 34° F | 27% | 822.6 mmHg | - | - | - | - |
| 1788149437 | 34° F | 27% | 822.7 mmHg | - | - | - | - |
| 1788148537 | 34° F | 28% | 822.6 mmHg | - | - | - | - |
| 1788147637 | 34° F | 24% | 822.8 mmHg | - | - | - | - |
| 1788146737 | 34° F | 22% | 822.7 mmHg | - | - | - | - |
| 1788145837 | 34° F | 21% | 822.9 mmHg | - | - | - | - |
| 1788144936 | 35° F | 20% | 823 mmHg | - | - | - | - |
| 1788144036 | 35° F | 21% | 823 mmHg | - | - | - | - |
| 1788143136 | 35° F | 21% | 823.3 mmHg | - | - | - | - |
| 1788142237 | 35° F | 20% | 823.3 mmHg | - | - | - | - |
| 1788141336 | 35° F | 19% | 823 mmHg | - | - | - | - |
| 1788140436 | 36° F | 19% | 823.2 mmHg | - | - | - | - |
| 1788139536 | 36° F | 19% | 823.2 mmHg | - | - | - | - |
| 1788138636 | 37° F | 19% | 823.3 mmHg | - | - | - | - |
| 1788137736 | 37° F | 20% | 823.3 mmHg | - | - | - | - |
| 1788136836 | 38° F | 19% | 823.3 mmHg | - | - | - | - |
| 1788135937 | 38° F | 19% | 823.2 mmHg | - | - | - | - |
| 1788135037 | 39° F | 19% | 823 mmHg | - | - | - | - |
* Rain since midnight (hover to see other rain measurements)
** Current wind speed in m/s (hover to see current wind gust speed)